AEHF-2 (USA 235)

Last updated on Thu Oct 30 2025 00:02:49 GMT+0000 (Coordinated Universal Time)

1 38254U 12019A 25302.18238317 -.00000122 00000+0 00000+0 0 9994 2 38254 6.1146 59.0973 0003481 166.3768 221.4671 1.00270393 4673
UTC large
Height (km)
Speed (km/s)
/
Latitude / Longitude
Inclination (degrees)
Orbital Period (minutes)
Azimuth
Elevation
Range (km)
Doppler Factor

Next 0 passes for location: London (51.5072 / 0.1276)

Sorry there are no passes over London.